| time (UTC) | temp F | wind direction | speed knots | gust knots | rain 1hr in | rain 24hr in | rain mn in | humidity % | barometer mb |
| 20260508054521 | 53 | 355 | 0.0 | 1.7 | 0.00 | 0.00 | 0.00 | 80 | 1017.6 |
| 20260508053016 | 54 | 336 | 1.7 | 4.3 | 0.00 | 0.00 | 0.00 | 79 | 1017.5 |
| 20260508051523 | 55 | 322 | 1.7 | 5.2 | 0.00 | 0.00 | 0.00 | 78 | 1017.5 |
| 20260508050018 | 55 | 289 | 2.6 | 7.8 | 0.00 | 0.00 | 0.00 | 77 | 1017.4 |
| 20260508044514 | 56 | 304 | 2.6 | 7.0 | 0.00 | 0.00 | 0.00 | 76 | 1017.3 |
| 20260508043016 | 57 | 336 | 2.6 | 7.0 | 0.00 | 0.00 | 0.00 | 74 | 1017.3 |
| 20260508041513 | 58 | 331 | 2.6 | 9.6 | 0.00 | 0.00 | 0.00 | 73 | 1017.2 |
| 20260508040014 | 59 | 299 | 3.5 | 7.8 | 0.00 | 0.00 | 0.00 | 72 | 1017.0 |
| 20260508034512 | 60 | 304 | 1.7 | 7.0 | 0.00 | 0.00 | 0.00 | 71 | 1016.8 |
| 20260508033011 | 61 | 296 | 2.6 | 7.0 | 0.00 | 0.00 | 0.00 | 69 | 1016.6 |
| 20260508031511 | 62 | 325 | 1.7 | 7.0 | 0.00 | 0.00 | 0.00 | 68 | 1016.4 |
| 20260508030010 | 63 | 355 | 1.7 | 4.3 | 0.00 | 0.00 | 0.00 | 66 | 1016.3 |
| 20260508024511 | 65 | 332 | 1.7 | 5.2 | 0.00 | 0.00 | 0.00 | 64 | 1016.2 |
| 20260508023012 | 66 | 333 | 1.7 | 4.3 | 0.00 | 0.00 | 0.00 | 62 | 1016.2 |
| 20260508021508 | 67 | 296 | 0.9 | 8.7 | 0.00 | 0.00 | 0.00 | 61 | 1016.1 |
| 20260508020007 | 69 | 339 | 1.7 | 3.5 | 0.00 | 0.00 | 0.00 | 59 | 1016.1 |
| 20260508014506 | 71 | 340 | 0.9 | 3.5 | 0.00 | 0.00 | 0.00 | 55 | 1016.2 |
| 20260508013005 | 72 | 28 | 0.9 | 3.5 | 0.00 | 0.00 | 0.00 | 55 | 1016.2 |
| 20260508011504 | 72 | 319 | 2.6 | 7.0 | 0.00 | 0.00 | 0.00 | 60 | 1016.3 |
| 20260508010004 | 72 | 182 | 0.0 | 3.5 | 0.00 | 0.00 | 0.00 | 58 | 1016.4 |
| 20260508004601 | 72 | 92 | 0.9 | 3.5 | 0.00 | 0.00 | 0.00 | 59 | 1016.4 |
| 20260508003100 | 71 | 139 | 1.7 | 5.2 | 0.00 | 0.00 | 0.00 | 61 | 1016.4 |
| 20260508001558 | 71 | 126 | 1.7 | 4.3 | 0.00 | 0.00 | 0.00 | 62 | 1016.5 |
| 20260508000055 | 71 | 191 | 1.7 | 6.1 | 0.00 | 0.00 | 0.00 | 59 | 1016.6 |
| 20260507234601 | 72 | 196 | 2.6 | 6.1 | 0.00 | 0.00 | 0.00 | 59 | 1016.7 |
| 20260507233049 | 71 | 118 | 0.9 | 4.3 | 0.00 | 0.00 | 0.00 | 60 | 1016.8 |
| 20260507231552 | 70 | 178 | 0.9 | 5.2 | 0.00 | 0.00 | 0.00 | 61 | 1017.0 |
| 20260507230050 | 71 | 142 | 1.7 | 3.5 | 0.00 | 0.00 | 0.00 | 57 | 1017.2 |
| 20260507224542 | 70 | 136 | 1.7 | 3.5 | 0.00 | 0.00 | 0.00 | 59 | 1017.6 |
| 20260507223038 | 69 | 182 | 0.9 | 3.5 | 0.00 | 0.00 | 0.00 | 60 | 1017.7 |
| 20260507221534 | 68 | 263 | 0.9 | 4.3 | 0.00 | 0.00 | 0.00 | 62 | 1017.9 |
| 20260507220032 | 68 | 80 | 2.6 | 5.2 | 0.00 | 0.00 | 0.00 | 61 | 1018.2 |
| 20260507214532 | 67 | 360 | 0.9 | 5.2 | 0.00 | 0.00 | 0.00 | 61 | 1018.5 |
| 20260507213029 | 66 | 84 | 0.0 | 5.2 | 0.00 | 0.00 | 0.00 | 62 | 1018.5 |
| 20260507211525 | 66 | 182 | 0.9 | 6.1 | 0.00 | 0.00 | 0.00 | 64 | 1018.7 |
| 20260507210023 | 65 | 263 | 0.9 | 7.0 | 0.00 | 0.00 | 0.00 | 62 | 1018.9 |
| 20260507204520 | 65 | 113 | 1.7 | 5.2 | 0.00 | 0.00 | 0.00 | 64 | 1019.1 |
| 20260507203016 | 64 | 35 | 0.9 | 4.3 | 0.00 | 0.00 | 0.00 | 65 | 1019.4 |
| 20260507201516 | 63 | 307 | 1.7 | 6.1 | 0.00 | 0.00 | 0.00 | 69 | 1019.5 |
| 20260507200012 | 63 | 93 | 3.5 | 7.0 | 0.00 | 0.00 | 0.00 | 67 | 1019.6 |
| 20260507194513 | 62 | 325 | 0.9 | 5.2 | 0.00 | 0.00 | 0.00 | 68 | 1019.8 |
| 20260507193009 | 63 | 15 | 0.9 | 5.2 | 0.00 | 0.00 | 0.00 | 67 | 1019.9 |
| 20260507191506 | 62 | 192 | 0.9 | 5.2 | 0.00 | 0.00 | 0.00 | 69 | 1020.0 |
| 20260507190004 | 61 | 347 | 0.9 | 7.0 | 0.00 | 0.00 | 0.00 | 72 | 1020.3 |
| 20260507184503 | 60 | 92 | 4.3 | 8.7 | 0.00 | 0.00 | 0.00 | 73 | 1020.4 |
| 20260507183107 | 62 | 344 | 1.7 | 7.0 | 0.00 | 0.00 | 0.00 | 69 | 1020.3 |
| 20260507181557 | 60 | 142 | 0.0 | 6.1 | 0.00 | 0.00 | 0.00 | 72 | 1020.4 |
| 20260507180053 | 58 | 360 | 0.0 | 2.6 | 0.00 | 0.00 | 0.00 | 78 | 1020.5 |
| 20260507174604 | 59 | 360 | 1.7 | 4.3 | 0.00 | 0.00 | 0.00 | 83 | 1020.7 |
| 20260507173056 | 58 | 133 | 0.0 | 1.7 | 0.00 | 0.00 | 0.00 | 81 | 1020.7 |
| 20260507171603 | 57 | 304 | 0.0 | 3.5 | 0.00 | 0.00 | 0.00 | 83 | 1020.7 |
| 20260507170142 | 56 | 277 | 0.9 | 1.7 | 0.00 | 0.00 | 0.00 | 84 | 1020.7 |
| 20260507164553 | 56 | 57 | 0.0 | 2.6 | 0.00 | 0.00 | 0.00 | 83 | 1020.8 |
| 20260507163037 | 56 | 206 | 0.0 | 2.6 | 0.00 | 0.00 | 0.00 | 85 | 1020.7 |
| 20260507161540 | 55 | 326 | 0.0 | 1.7 | 0.00 | 0.00 | 0.00 | 85 | 1020.7 |
| 20260507160036 | 54 | 323 | 1.7 | 3.5 | 0.00 | 0.00 | 0.00 | 86 | 1020.8 |
| 20260507154533 | 54 | 289 | 1.7 | 3.5 | 0.00 | 0.00 | 0.00 | 86 | 1020.8 |
| 20260507153025 | 54 | 61 | 0.0 | 1.7 | 0.00 | 0.00 | 0.00 | 87 | 1020.9 |
| 20260507151535 | 53 | 314 | 0.0 | 2.6 | 0.00 | 0.00 | 0.00 | 89 | 1020.9 |
| 20260507150017 | 53 | 241 | 0.9 | 1.7 | 0.00 | 0.00 | 0.00 | 89 | 1021.0 |
| 20260507144514 | 53 | 256 | 0.0 | 0.0 | 0.00 | 0.00 | 0.00 | 90 | 1021.0 |
| 20260507143011 | 52 | 313 | 0.0 | 1.7 | 0.00 | 0.00 | 0.00 | 90 | 1020.9 |
| 20260507141509 | 52 | 284 | 0.0 | 0.0 | 0.00 | 0.00 | 0.00 | 90 | 1020.8 |
| 20260507140009 | 52 | 285 | 1.7 | 2.6 | 0.00 | 0.00 | 0.00 | 90 | 1020.8 |
| 20260507134502 | 52 | 330 | 0.0 | 1.7 | 0.00 | 0.00 | 0.00 | 91 | 1020.7 |
| 20260507133059 | 51 | 324 | 0.0 | 2.6 | 0.00 | 0.00 | 0.00 | 91 | 1020.6 |
| 20260507131615 | 51 | 333 | 0.0 | 1.7 | 0.00 | 0.00 | 0.00 | 91 | 1020.6 |
| 20260507130056 | 51 | 306 | 0.0 | 0.0 | 0.00 | 0.00 | 0.00 | 90 | 1020.7 |
| 20260507124556 | 51 | 348 | 0.0 | 1.7 | 0.00 | 0.00 | 0.00 | 90 | 1020.7 |
| 20260507123051 | 51 | 289 | 0.9 | 2.6 | 0.00 | 0.00 | 0.00 | 90 | 1020.7 |
| 20260507121550 | 52 | 309 | 0.0 | 2.6 | 0.00 | 0.00 | 0.00 | 90 | 1020.9 |
| 20260507120047 | 52 | 350 | 0.9 | 2.6 | 0.00 | 0.00 | 0.00 | 89 | 1021.0 |
| 20260507114543 | 52 | 283 | 0.0 | 0.0 | 0.00 | 0.00 | 0.00 | 89 | 1021.0 |
| 20260507113038 | 52 | 283 | 0.0 | 0.0 | 0.00 | 0.00 | 0.00 | 90 | 1021.1 |
| 20260507111534 | 52 | 283 | 0.0 | 0.0 | 0.00 | 0.00 | 0.00 | 90 | 1021.1 |
| 20260507110040 | 52 | 283 | 0.0 | 0.0 | 0.00 | 0.00 | 0.00 | 90 | 1021.2 |
| 20260507104527 | 52 | 283 | 0.0 | 0.0 | 0.00 | 0.00 | 0.00 | 89 | 1021.1 |
| 20260507103024 | 52 | 283 | 0.0 | 0.0 | 0.00 | 0.00 | 0.00 | 89 | 1021.2 |
| 20260507101520 | 52 | 283 | 0.0 | 0.0 | 0.00 | 0.00 | 0.00 | 89 | 1021.3 |
| 20260507100012 | 52 | 283 | 0.0 | 0.0 | 0.00 | 0.00 | 0.00 | 89 | 1021.4 |
| 20260507094509 | 52 | 283 | 0.0 | 0.0 | 0.00 | 0.00 | 0.00 | 89 | 1021.5 |
| 20260507093004 | 52 | 325 | 0.0 | 0.0 | 0.00 | 0.00 | 0.00 | 89 | 1021.6 |
| 20260507091641 | 52 | 304 | 0.0 | 1.7 | 0.00 | 0.00 | 0.00 | 88 | 1021.7 |
| 20260507090106 | 52 | 313 | 0.0 | 1.7 | 0.00 | 0.00 | 0.00 | 89 | 1021.7 |
| 20260507084558 | 52 | 266 | 0.9 | 2.6 | 0.00 | 0.00 | 0.00 | 89 | 1021.8 |
| 20260507083056 | 51 | 292 | 0.0 | 2.6 | 0.00 | 0.00 | 0.00 | 89 | 1021.9 |
| 20260507081554 | 51 | 271 | 1.7 | 3.5 | 0.00 | 0.00 | 0.00 | 89 | 1021.9 |
| 20260507080051 | 51 | 272 | 0.9 | 2.6 | 0.00 | 0.00 | 0.00 | 89 | 1021.9 |
| 20260507074548 | 52 | 267 | 0.0 | 2.6 | 0.00 | 0.00 | 0.00 | 88 | 1022.0 |
| 20260507073043 | 52 | 303 | 0.9 | 2.6 | 0.00 | 0.00 | 0.00 | 87 | 1022.1 |
| 20260507071538 | 52 | 278 | 0.9 | 3.5 | 0.00 | 0.00 | 0.00 | 87 | 1022.0 |
| 20260507070041 | 52 | 300 | 2.6 | 5.2 | 0.00 | 0.00 | 0.00 | 86 | 1022.0 |
| 20260507064536 | 52 | 340 | 4.3 | 7.8 | 0.00 | 0.00 | 0.00 | 87 | 1022.0 |
| 20260507063035 | 51 | 325 | 2.6 | 4.3 | 0.00 | 0.00 | 0.00 | 88 | 1022.0 |
| 20260507061531 | 51 | 337 | 0.9 | 5.2 | 0.00 | 0.00 | 0.00 | 88 | 1022.0 |
| 20260507060030 | 51 | 304 | 1.7 | 7.0 | 0.00 | 0.00 | 0.00 | 88 | 1021.9 |